TimeEDT,TemperatureF,Dew PointF,Humidity,Sea Level PressureIn,VisibilityMPH,Wind Direction,Wind SpeedMPH,Gust SpeedMPH,PrecipitationIn,Events,Conditions,WindDirDegrees,DateUTC
12:58 AM,60.6,60.4,99,30.12,10.0,North,1.2,-,N/A,,Scattered Clouds,10,2013-04-18 04:58:00
1:58 AM,59.9,59.9,100,30.11,10.0,NNE,2.3,-,N/A,,Partly Cloudy,20,2013-04-18 05:58:00
2:37 AM,60.8,60.8,100,30.08,4.0,NE,3.5,-,N/A,,Clear,40,2013-04-18 06:37:00
2:42 AM,60.8,60.8,100,30.08,2.5,NNE,2.3,-,N/A,,Partly Cloudy,20,2013-04-18 06:42:00
2:52 AM,60.8,60.8,100,30.09,1.0,North,2.3,-,N/A,,Mist,10,2013-04-18 06:52:00
2:57 AM,60.8,60.8,100,30.09,0.5,NE,2.3,-,N/A,Fog,Fog,40,2013-04-18 06:57:00
2:58 AM,61.2,61.2,100,30.09,0.5,NE,2.3,-,N/A,Fog,Fog,40,2013-04-18 06:58:00
3:58 AM,60.8,60.8,100,30.08,0.8,NNE,2.3,-,N/A,,Mist,30,2013-04-18 07:58:00
4:48 AM,62.6,62.6,100,30.06,1.0,Calm,Calm,-,N/A,,Mist,0,2013-04-18 08:48:00
4:53 AM,62.6,62.6,100,30.06,1.5,Variable,1.2,-,N/A,,Clear,0,2013-04-18 08:53:00
4:58 AM,62.6,62.6,100,30.07,3.0,West,3.5,-,N/A,,Clear,270,2013-04-18 08:58:00
5:03 AM,62.6,62.6,100,30.06,10.0,West,2.3,-,N/A,,Clear,280,2013-04-18 09:03:00
5:18 AM,60.8,60.8,100,30.07,9.0,Calm,Calm,-,N/A,,Scattered Clouds,0,2013-04-18 09:18:00
5:23 AM,60.8,60.8,100,30.07,9.0,Calm,Calm,-,N/A,,Scattered Clouds,0,2013-04-18 09:23:00
5:58 AM,61.0,61.0,100,30.08,10.0,Calm,Calm,-,N/A,,Clear,0,2013-04-18 09:58:00
6:58 AM,62.1,61.9,99,30.09,10.0,Calm,Calm,-,N/A,,Clear,0,2013-04-18 10:58:00
7:58 AM,63.7,63.7,100,30.11,10.0,Calm,Calm,-,N/A,,Mostly Cloudy,10,2013-04-18 11:58:00
8:58 AM,67.8,67.8,100,30.11,10.0,ENE,3.5,-,N/A,,Mostly Cloudy,70,2013-04-18 12:58:00
9:58 AM,71.2,71.2,100,30.12,10.0,SE,5.8,-,N/A,,Overcast,130,2013-04-18 13:58:00
10:48 AM,71.6,69.8,94,30.11,10.0,South,6.9,-,N/A,,Mostly Cloudy,190,2013-04-18 14:48:00
10:58 AM,72.3,69.8,92,30.12,10.0,SW,6.9,-,N/A,,Overcast,220,2013-04-18 14:58:00
11:58 AM,78.3,65.3,64,30.11,7.0,ESE,9.2,17.3,N/A,,Mostly Cloudy,120,2013-04-18 15:58:00
12:58 PM,81.5,65.1,57,30.09,10.0,East,13.8,18.4,N/A,,Scattered Clouds,100,2013-04-18 16:58:00
1:05 PM,80.6,64.4,58,30.08,10.0,East,12.7,19.6,N/A,,Mostly Cloudy,90,2013-04-18 17:05:00
1:58 PM,80.2,64.4,58,30.08,10.0,ESE,15.0,-,N/A,,Overcast,110,2013-04-18 17:58:00
2:58 PM,81.1,66.4,61,30.05,10.0,ESE,17.3,21.9,N/A,,Mostly Cloudy,110,2013-04-18 18:58:00
3:58 PM,80.8,66.0,61,30.04,10.0,SE,13.8,-,N/A,,Partly Cloudy,140,2013-04-18 19:58:00
4:58 PM,81.0,65.8,60,30.03,10.0,ESE,16.1,17.3,N/A,,Scattered Clouds,110,2013-04-18 20:58:00
5:58 PM,77.9,65.8,66,30.02,10.0,ESE,9.2,-,N/A,,Scattered Clouds,110,2013-04-18 21:58:00
6:23 PM,78.8,66.2,65,30.01,10.0,East,11.5,18.4,N/A,,Mostly Cloudy,100,2013-04-18 22:23:00
6:43 PM,77.0,66.2,69,30.00,10.0,ESE,9.2,-,N/A,,Scattered Clouds,110,2013-04-18 22:43:00
6:58 PM,76.1,65.8,70,30.01,10.0,East,15.0,-,N/A,,Partly Cloudy,100,2013-04-18 22:58:00
7:58 PM,73.2,66.7,80,30.01,10.0,ESE,10.4,-,N/A,,Clear,110,2013-04-18 23:58:00
8:58 PM,71.6,67.8,88,30.03,10.0,ESE,6.9,-,N/A,,Mostly Cloudy,110,2013-04-19 00:58:00
9:58 PM,70.0,68.2,94,30.04,10.0,East,6.9,-,N/A,,Mostly Cloudy,100,2013-04-19 01:58:00
10:58 PM,68.0,68.0,100,30.04,10.0,ESE,5.8,-,N/A,,Clear,110,2013-04-19 02:58:00
11:58 PM,66.9,66.9,100,30.03,10.0,ESE,4.6,-,N/A,,Clear,120,2013-04-19 03:58:00